星链-30870 (STARLINK-30870 )

导读

STARLINK-30870是美国SpaceX公司星链(Starlink)星座的成员卫星,于2023年11月18日在美国东部试验场发射升空,NORAD编号为58369,国际编号为2023-177U。该卫星运行在近地轨道,近地点565.3公里,远地点567.3公里,倾角43.0°,轨道周期约95.8分钟,属于星链互联网星座组网卫星,旨在为全球提供低成本高速互联网接入服务。

Basic Information
目录编号:
58369
目录名称:
STARLINK-30870
国际标识:
2023-177U
轨道中心:
EARTH
卫星名称:
星链-30870
卫星全名:
星链-30870 (STARLINK-30870 )
卫星状态:
在轨 (已飞行943 天)
发射日期:
2023-11-18 UTC
国别 :
美国 (US)
星等 :
--
Orbit Information
数据来源 国际轨道数据 AOE轨道数据
星历时间 2026-06-17T00:21:21+0800
1天前
查看轨道信息
2026-06-13T06:00:00+0800
5天前
查看轨道信息
半长轴 6861.188km 6861.185km
偏心率 0.0000469 0.0001112
轨道倾角 42.999° 43.002°
近地点辐角 241.595° 251.767°
升交点赤经 151.827° 173.095°
平近点角 118.485° 260.185°
近地点 482.729km 482.285km
远地点 483.373km 483.811km
周期 94.267分钟 94.267分钟
每日圈数 15.275795 15.275806
Detailed Information
固有亮度:
5
最大亮度:
0.3
卫星平台:
Starlink v2.0 mini
覆盖范围:
全球
运营商:
太空探索技术公司
运营商所在国:
美国
制造商(研发单位):
太空探索技术公司
制造商所在国:
美国
使用方式:
暂无
Satellite Introduction
星链(Starlink)计划是由太空探索技术公司(SpaceX)提出的一个巨型低轨卫星互联网星座项目,计划在2019年至2024年间在太空搭建由约1.2万颗卫星组成的“星链”网络,其中1584颗将部署在地球上空550千米处的近地轨道,并从2020年开始工作。该卫星仍在工作。
2D Orbit Map
3D Orbit Map
Orbit Altitude Analysis Chart
Orbit Inclination Analysis Chart
Orbit Comprehensive Analysis Chart
View Comprehensive Chart